Date String (YYYY-MM-DD hh:mm:ss) UTC,Instrument flags,Ambient pressure (hPa),Sample flow (lpm),Bypass flow (lpm),Sample temperature (°C),Ambient temperature (°C),ASC tube jacket temperature (°C),LED temperature (°C),Box temperature (°C),Sample RH (%),Span deviation,Mass concentration (μg/m³),Mass concentration (μg/m³),Mass concentration (μg/m³)
DateTimeUTC,F1_M11,P_M11,Q1_M11,Q2_M11,T1_M11,T2_M11,T3_M11,T4_M11,T5_M11,U1_M11,ZSPAN_M11,X0_M11,X2_M11,X1_M11
2022-03-12 04:00:00,,0827.6,5.00,0.00,22.8,22.2,00.0,31.7,24.6,07.0,0000.0,0009.74,0004.48,0003.85
2022-03-12 04:01:00,,0827.7,5.01,0.00,22.8,22.1,00.0,31.7,24.5,07.0,0000.0,0009.77,0004.49,0003.85
2022-03-12 04:02:00,,0827.7,4.98,0.00,22.7,22.0,00.0,31.7,24.5,07.0,0000.0,0009.72,0004.49,0003.85
2022-03-12 04:03:00,,0827.7,5.01,0.00,22.7,22.0,00.0,31.7,24.5,07.0,0000.0,0009.56,0004.50,0003.84
2022-03-12 04:04:00,,0827.7,5.01,0.00,22.7,21.9,00.0,31.7,24.5,07.0,0000.0,0009.01,0004.51,0003.83
2022-03-12 04:05:00,,0827.7,5.00,0.00,22.7,21.9,00.0,31.7,24.5,07.0,0000.0,0009.25,0004.50,0003.83
2022-03-12 04:06:00,,0827.7,5.00,0.00,22.7,21.9,00.0,31.6,24.4,07.0,0000.0,0009.43,0004.46,0003.84
2022-03-12 04:07:00,,0827.7,5.00,0.00,22.7,21.9,00.0,31.6,24.4,07.0,0000.0,0009.80,0004.48,0003.85
2022-03-12 04:08:00,,0827.7,4.99,0.00,22.6,21.8,00.0,31.6,24.4,07.0,0000.0,0009.82,0004.53,0003.86
2022-03-12 04:09:00,,0827.6,4.99,0.00,22.6,21.8,00.0,31.6,24.4,07.0,0000.0,0010.05,0004.58,0003.86
2022-03-12 04:10:00,,0827.6,5.02,0.00,22.6,21.8,00.0,31.6,24.3,07.0,0000.0,0010.13,0004.60,0003.86
2022-03-12 04:11:00,,0827.6,5.00,0.00,22.6,21.7,00.0,31.6,24.3,07.1,0000.0,0010.39,0004.62,0003.86
2022-03-12 04:12:00,,0827.6,4.99,0.00,22.6,21.7,00.0,31.6,24.3,07.0,0000.0,0010.33,0004.63,0003.86
2022-03-12 04:13:00,,0827.6,4.99,0.00,22.6,21.7,00.0,31.6,24.3,07.0,0000.0,0010.53,0004.65,0003.86
2022-03-12 04:14:00,,0827.6,5.01,0.00,22.6,21.7,00.0,31.6,24.3,07.0,0000.0,0010.75,0004.71,0003.87
2022-03-12 04:15:00,,0827.6,4.98,0.00,22.5,21.7,00.0,31.6,24.3,07.0,0000.0,0010.88,0004.73,0003.88
2022-03-12 04:16:00,,0827.6,5.02,0.00,22.5,21.6,00.0,31.6,24.3,07.1,0000.0,0010.54,0004.76,0003.89
2022-03-12 04:17:00,,0827.6,4.99,0.00,22.5,21.6,00.0,31.5,24.2,07.1,0000.0,0010.34,0004.76,0003.89
2022-03-12 04:18:00,,0827.5,5.00,0.00,22.5,21.6,00.0,31.5,24.2,07.1,0000.0,0010.19,0004.79,0003.89
2022-03-12 04:19:00,,0827.5,5.00,0.00,22.5,21.6,00.0,31.5,24.2,07.1,0000.0,0009.86,0004.80,0003.90
2022-03-12 04:20:00,,0827.5,5.00,0.00,22.5,21.8,00.0,31.5,24.2,07.1,0000.0,0009.83,0004.81,0003.91
2022-03-12 04:21:00,,0827.5,5.00,0.00,22.6,22.4,00.0,31.6,24.4,07.0,0000.0,0009.90,0004.79,0003.92
2022-03-12 04:22:00,,0827.6,5.00,0.00,22.7,23.0,00.0,31.6,24.7,07.0,0000.0,0009.83,0004.78,0003.93
2022-03-12 04:23:00,,0827.6,5.01,0.00,22.8,23.0,00.0,31.6,24.8,06.9,0000.0,0009.76,0004.77,0003.94
2022-03-12 04:24:00,,0827.6,5.00,0.00,22.8,22.9,00.0,31.6,24.8,06.9,0000.0,0009.66,0004.78,0003.95
2022-03-12 04:25:00,,0827.5,5.00,0.00,22.8,22.7,00.0,31.6,24.7,06.8,0000.0,0010.09,0004.76,0003.97
2022-03-12 04:26:00,,0827.5,5.00,0.00,22.8,22.5,00.0,31.7,24.6,06.8,0000.0,0010.22,0004.83,0003.99
2022-03-12 04:27:00,,0827.5,5.00,0.00,22.8,22.4,00.0,31.7,24.6,06.8,0000.0,0010.44,0004.86,0004.00
2022-03-12 04:28:00,,0827.4,4.99,0.00,22.8,22.3,00.0,31.7,24.6,06.7,0000.0,0011.06,0004.91,0004.02
2022-03-12 04:29:00,,0827.4,5.00,0.00,22.8,22.2,00.0,31.7,24.6,06.7,0000.0,0010.76,0004.92,0004.05
2022-03-12 04:30:00,,0827.4,5.00,0.00,22.7,22.1,00.0,31.7,24.5,06.7,0000.0,0010.91,0004.95,0004.06
2022-03-12 04:31:00,,0827.4,5.00,0.00,22.7,22.0,00.0,31.7,24.5,06.8,0000.6,0011.08,0004.95,0004.07
2022-03-12 04:32:00,,0827.4,5.00,0.00,22.7,22.0,00.0,31.6,24.5,06.8,0003.2,0010.97,0004.99,0004.10
2022-03-12 04:33:00,,0827.4,5.02,0.00,22.7,21.9,00.0,31.6,24.4,06.8,0000.0,0010.85,0005.03,0004.13
2022-03-12 04:34:00,,0827.4,4.99,0.00,22.7,21.9,00.0,31.6,24.4,06.9,0002.2,0011.26,0005.10,0004.16
2022-03-12 04:35:00,,0827.4,5.00,0.00,22.6,21.8,00.0,31.6,24.3,06.9,0003.1,0011.99,0005.14,0004.18
2022-03-12 04:36:00,,0827.4,5.01,0.00,22.6,21.8,00.0,31.6,24.3,06.9,0001.1,0012.58,0005.22,0004.21
2022-03-12 04:37:00,,0827.4,4.99,0.00,22.6,21.7,00.0,31.6,24.3,06.9,0000.0,0012.64,0005.20,0004.21
2022-03-12 04:38:00,,0827.4,4.99,0.00,22.6,21.7,00.0,31.6,24.3,07.0,0000.0,0012.50,0005.21,0004.23
2022-03-12 04:39:00,,0827.4,4.99,0.00,22.5,21.6,00.0,31.6,24.3,07.0,0000.0,0011.95,0005.27,0004.25
2022-03-12 04:40:00,,0827.5,5.01,0.00,22.5,21.6,00.0,31.6,24.2,07.1,0000.0,0012.30,0005.26,0004.25
2022-03-12 04:41:00,,0827.5,5.00,0.00,22.5,21.6,00.0,31.6,24.2,07.1,0000.0,0012.54,0005.29,0004.27
2022-03-12 04:42:00,,0827.4,4.99,0.00,22.5,21.6,00.0,31.6,24.2,07.1,0000.0,0012.50,0005.31,0004.29
2022-03-12 04:43:00,,0827.4,5.01,0.00,22.5,21.6,00.0,31.5,24.1,07.1,0002.1,0012.50,0005.31,0004.30
2022-03-12 04:44:00,,0827.4,5.00,0.00,22.4,21.5,00.0,31.5,24.1,07.1,0001.6,0012.61,0005.33,0004.30
2022-03-12 04:45:00,,0827.4,5.00,0.00,22.5,22.0,00.0,31.5,24.3,07.2,0001.7,0012.62,0005.27,0004.28
2022-03-12 04:46:00,,0827.4,5.01,0.00,22.6,22.7,00.0,31.6,24.5,07.1,0001.2,0011.85,0005.23,0004.26
2022-03-12 04:47:00,,0827.4,4.99,0.00,22.7,23.0,00.0,31.6,24.7,07.1,0000.2,0010.83,0005.18,0004.27
2022-03-12 04:48:00,,0827.4,5.01,0.00,22.8,22.9,00.0,31.6,24.7,07.1,0001.6,0010.67,0005.17,0004.28
2022-03-12 04:49:00,,0827.4,4.99,0.00,22.8,22.7,00.0,31.6,24.7,07.0,0000.0,0010.59,0005.14,0004.28
2022-03-12 04:50:00,,0827.4,5.00,0.00,22.8,22.5,00.0,31.6,24.6,07.1,0000.3,0010.53,0005.09,0004.27
2022-03-12 04:51:00,,0827.3,5.01,0.00,22.7,22.4,00.0,31.6,24.5,07.2,0000.0,0010.13,0005.09,0004.27
2022-03-12 04:52:00,,0827.3,5.00,0.00,22.7,22.2,00.0,31.6,24.4,07.1,0000.0,0009.75,0005.01,0004.26
2022-03-12 04:53:00,,0827.4,5.00,0.00,22.7,22.1,00.0,31.6,24.4,07.1,0000.0,0009.51,0004.99,0004.26
2022-03-12 04:54:00,,0827.4,5.00,0.00,22.7,22.0,00.0,31.6,24.4,07.1,0000.0,0009.59,0005.03,0004.27
2022-03-12 04:55:00,,0827.4,5.01,0.00,22.6,22.0,00.0,31.6,24.4,07.2,0000.0,0009.29,0005.01,0004.27
2022-03-12 04:56:00,,0827.4,4.98,0.00,22.6,21.9,00.0,31.6,24.3,07.2,0000.0,0009.13,0005.05,0004.28
2022-03-12 04:57:00,,0827.4,5.01,0.00,22.6,21.8,00.0,31.6,24.3,07.3,0000.0,0009.32,0005.08,0004.28
2022-03-12 04:58:00,,0827.4,4.99,0.00,22.6,21.8,00.0,31.6,24.3,07.4,0000.0,0009.73,0005.08,0004.28
2022-03-12 04:59:00,,0827.4,4.99,0.00,22.6,21.7,00.0,31.6,24.3,07.5,0000.0,0009.75,0005.10,0004.26
